User: anonymous   Login
Location: Unspecified
(0.0000°N, 0.0000°E)
Time: 22:19:25
(UTC+00:00)
Language:

PCSat - Orbit

View from above orbital plane
View from above orbital plane
View from above satellite
View from above satellite

Ground track
Ground track

The orbit data is extracted from the following two-line orbital elements,

1 26931U 01043C   17327.52027846 -.00000012  00000-0  27387-4 0  9998
2 26931  67.0527  40.0878 0005296 264.6560  95.3937 14.30484204843133
Epoch (UTC): 23 November 2017 12:29:12
Eccentricity: 0.0005296
inclination: 67.0527°
perigee height: 786 km
apogee height: 794 km
right ascension of ascending node: 40.0878°
argument of perigee: 264.6560°
revolutions per day: 14.30484204
mean anomaly at epoch: 95.3937°
orbit number at epoch: 84313

The dashed part of the orbit path shows where the satellite is in the earth's shadow,  

DLR